www.pogodaiklimat.ru

Погода и климат >> Архив погоды >> Португалия >> Флошир


ПОГОДА на Флошише

  • Прогноз погоды на Флошише
  • Монитор погоды на Флошише

АРХИВ ПОГОДЫ на Флошише

Время (UTC), дата Ветер
(напр.,м/с)
 
Видим.   Явления Облачность Т
(С)
Тd
(С)
f
(%)
Тe
(С)
Тes
(С)
Комфортность P
(гПа)
Po
(гПа)
Тmin
(С)
Tmax
(С)
R
(мм)
R24
(мм)
S
(см)
06 14.05 З 1 н/о н/о +13.9 +9.9 77 +14 +14 1019.4 1015.8 +12.8 0.2
09 14.05 С 2
{5}
40 км 8/5 700 м
[Cu Sc Cs]
+16.4 +10.2 67 +17 +18 1021.0 1017.4
12 14.05 З 3-6
{7}
40 км 6/1 700 м
[Cu med, cong Ac trans Ci sp]
+17.9 +8.6 54 +18 +26 1021.9 1018.3
15 14.05 ЮЗ 4-8
{8}
40 км 6/3 750 м
[Cu med, cong Ac trans Cs]
+18.3 +10.9 62 +18 +25 1021.7 1018.1
18 14.05 Ю 4-6
{7}
35 км осадки на расстоянии 10/1 540 м
[Cu hum Ac As Cs]
+17.5 +13.1 75 +17 +20 1021.2 1017.6 +19.7
21 14.05 ЮВ 4-7
{7}
н/о н/о +15.2 +14.2 94 +14 +14 1021.2 1017.6
00 15.05 Ю 5
{9}
н/о н/о +17.0 +17.0 100 +16 +16 1019.9 1016.3 0.6
03 15.05 Ю 4-8
{9}
н/о н/о +18.0 +18.0 100 +18 +18 1018.0 1014.4
06 15.05 З 5-12
{12}
н/о н/о +18.7 +16.9 89 +19 +19 1016.9 1013.3 +15.2 20
09 15.05 ЮЗ 6-12
{12}
18 км 6/5 420 м
[Cu Sc Ac lent Ci fib]
+18.5 +15.1 81 +19 +19 1019.1 1015.6
12 15.05 СЗ 7-11
{12}
22 км {ливн. осадки, морось} 9/9 420 м
[Cu Sc Ac lent Ci fib]
+16.9 +14.0 83 +16 +16 1021.9 1018.3
15 15.05 С 6-11
{13}
24 км {ливн. осадки} 9/9 420 м
[Cu Sc Ac lent Ci fib]
+16.8 +13.9 83 +16 +16 1022.9 1019.3
18 15.05 С 6-9
{12}
24 км {ливн. осадки} 9/9 450 м
[Cu Sc Ac lent Ci fib]
+16.0 +12.1 78 +15 +15 1024.5 1020.9 +19.4
21 15.05 С 3-6
{8}
н/о н/о +15.0 +11.1 77 +14 +14 1025.7 1022.1
00 16.05 С 3-5
{6}
н/о н/о +14.7 +9.4 71 +14 +14 1027.4 1023.7
03 16.05 З 2 н/о н/о +12.5 +8.8 78 +12 +12 1027.1 1023.4
06 16.05 З 3 н/о н/о +12.4 +8.8 79 +11 +11 1026.5 1022.8 +12.0
09 16.05 СЗ 1 28 км 1/1 600 м
[Cu Sc Ci fib]
+16.0 +10.7 71 +17 +20 1027.0 1023.4
12 16.05 С 2 30 км 1/1 700 м
[Cu Sc Ci fib]
+17.7 +10.8 64 +18 +32 опасность
простуды
1028.2 1024.6
15 16.05 В 2 30 км 1/1 700 м
[Cu Sc Ci fib]
+18.5 +11.9 65 +20 +37 опасность
простуды
1027.6 1024.0
18 16.05 ЮВ 3
{5}
30 км 1/1 660 м
[Cu Sc Ci fib]
+17.3 +11.6 69 +17 +23 1026.6 1023.0 +19.1
21 16.05 Ю 1 н/о н/о +15.3 +11.5 78 +16 +16 1027.5 1023.9
00 17.05 ЮЗ 2 н/о н/о +13.7 +11.9 89 +13 +13 1027.6 1023.9
03 17.05 ЮЗ 2 н/о н/о +13.5 +11.2 86 +13 +13 1026.9 1023.3
06 17.05 ЮЗ 2 н/о н/о +13.1 +12.3 95 +12 +12 1025.9 1022.2 +13.0
09 17.05 ЮВ 2 20 км 6/6 300 м
[Cu Sc Ci fib]
+17.4 +13.8 79 +18 +19 1026.6 1023.0
12 17.05 С 3
{5}
30 км 9/9 210 м
[Cu Sc Ci fib]
+18.5 +15.1 81 +19 +21 1027.1 1023.5
15 17.05 С 1
{5}
15 км слаб. морось 9/9 240 м
[Cu Sc Ci sp]
+19.7 +16.7 83 +23 +25 комфорт 1026.6 1023.1
18 17.05 С 3
{5}
25 км {морось} 9/9 240 м
[Cu Sc Ci sp]
+18.8 +16.0 84 +20 +21 1025.6 1022.1 +20.9 0.0
21 17.05 СЗ 2
{5}
н/о н/о +17.4 +14.3 82 +18 +18 1025.6 1022.0
00 18.05 С 3-5
{5}
н/о н/о +16.8 +14.1 84 +17 +17 1026.4 1022.8
03 18.05 ЮЗ 1
{5}
н/о н/о +16.6 +14.5 87 +17 +17 1025.3 1021.7
06 18.05 С 1 н/о н/о +16.3 +15.1 93 +17 +17 1024.1 1020.5 +16.3
09 18.05 штиль 0 50 км 9/9 540 м
[Cu Sc Ci fib]
+19.0 +13.5 70 +20 +20 1024.6 1021.1
12 18.05 С 2
{7}
50 км 8/8 540 м
[Cu Sc Ci sp]
+20.7 +13.8 65 +24 +27 комфорт 1024.6 1021.0
15 18.05 ЮЗ 5
{8}
30 км 1/1 660 м
[Cu Sc]
+21.0 +13.4 62 +24 +33 комфорт 1024.2 1020.7
18 18.05 С 3
{8}
50 км 1/1 540 м
[Cu Sc Ci sp]
+20.5 +13.5 64 +23 +29 комфорт 1023.9 1020.3 +22.1
21 18.05 штиль 0
{5}
н/о н/о +17.5 +12.8 74 +18 +18 1023.1 1019.6
00 19.05 ЮЗ 7-14
{14}
н/о н/о +16.9 +13.1 78 +16 +16 1022.8 1019.2
03 19.05 ЮЗ 6-10
{13}
н/о н/о +16.9 +12.8 77 +16 +16 1022.4 1018.8
06 19.05 ЮЗ 4-8
{10}
н/о н/о +17.1 +14.0 82 +17 +17 1021.3 1017.7 +16.7
09 19.05 ЮЗ 5-9
{10}
28 км 6/4 500 м
[Cu Sc Ac lent Ci fib]
+18.7 +13.3 71 +19 +20 1021.3 1017.7
12 19.05 Ю 4-9
{10}
н/о н/о +20.1 +14.3 69 +22 +22 комфорт 1021.8 1018.3
15 19.05 ЮЗ 4-8
{13}
28 км 6/4 540 м
[Cu Sc Ac lent Ci sp]
+19.8 +14.9 73 +22 +28 комфорт 1020.8 1017.2
18 19.05 Ю 4-8
{9}
30 км 5/3 540 м
[Cu Sc Ac lent Ci sp]
+20.9 +14.8 68 +24 +27 комфорт 1019.3 1015.7 +21.3
21 19.05 С 3-6
{9}
30 км 6/3 480 м
[Cu Sc Ac lent Ci]
+18.8 +14.5 76 +20 +20 1019.0 1015.4
00 20.05 ЮВ 4-10
{10}
н/о н/о +18.8 +14.2 75 +20 +20 1018.6 1015.0
03 20.05 Ю 6-13
{15}
н/о н/о +18.6 +13.9 74 +19 +19 1016.5 1013.0
06 20.05 Ю 6-10
{12}
н/о н/о +19.0 +14.3 74 +20 +20 1015.0 1011.5 +18.4
09 20.05 Ю 7-13
{14}
28 км 6/4 480 м
[Cu Sc Ac lent Ci]
+19.6 +14.6 73 +21 +21 комфорт 1014.2 1010.7
12 20.05 Ю 6-11
{16}
26 км 6/5 420 м
[Cu Sc Ac lent Ci]
+19.7 +15.7 78 +21 +24 комфорт 1013.7 1010.2
15 20.05 Ю 8-12
{14}
26 км 6/5 480 м
[Cu Sc Ac lent Ci sp]
+20.2 +17.4 84 +23 +24 комфорт 1012.2 1008.7
18 20.05 Ю 7-15
{16}
22 км 6/5 480 м
[Cu Sc Ac lent Ci sp]
+20.3 +16.3 78 +23 +24 комфорт 1010.4 1006.9 +22.1
21 20.05 Ю 7-15
{19}
н/о н/о +18.8 +16.8 88 +19 +19 1008.8 1005.3
00 21.05 З 8-13
{13}
н/о н/о +14.5 +11.6 83 +12 +12 1009.5 1005.9 4

 

Местоположение метеостанции Флошир (Португалия): широта 39.45 долгота -31.13 высота над уровнем моря 29 м.

В архиве по умолчанию представлена погода на Флошише за последнюю неделю. Архивные данные за месяц целиком и за предыдущие месяцы, начиная с января 2011 года, Вы можете получить, выбрав интересующий диапазон дат из раскрывающегося списка и нажав кнопку "Ввод!".


*Определитесь, кто Вы:
робот инопланетянин человек

Внимание! Время в таблицах - всемирное. Для получения местного времени необходимо прибавить поправку, которая равна 0 ч.

Смотрите также архив погоды в соседних городах и на ближайших метеорологических станциях:

Погода в Каштелу-Бранку (Португалия) (233 км)
Погода в Орте (Португалия) (240 км)
Погода в Пико (Португалия) (253 км)
Погода на Острове Грасьоса (Португалия) (270 км)
Погода в Сан-Жоржи (Португалия) (270 км)
Погода в Ангра-ду-Эроижму (Португалия) (349 км)
Погода в Аэропорту Лажеша (Португалия) (356 км)
Погода в Понта-Делгаде (Португалия) (509 км)
Погода в Санта-Марии (Португалия) (590 км)
Погода в Фуншале (Португалия) (1485 км)

Пояснения к столбцам:

Ветер - указаны скорость ветра в м/с - средняя за 10 мин, порывы в срок и между сроками (в фигурных скобках) и направление, откуда дует ветер: С - северный, СВ - северо-восточный, В - восточный, ЮВ - юго-восточный, Ю - южный, ЮЗ - юго-западный, З - западный, СЗ - северо-западный.
Видимость - горизонтальная дальность видимости в метрах или километрах. При видимости от 1 до 10 км при отсутствии осадков обычно наблюдается дымка, при ухудшении видимости до 1 км и менее - туман. В сухую погоду видимость может ухудшаться дымом, пылью или мглою.
Явления - указаны атмосферные явления, наблюдавшиеся в срок или в последний час перед сроком; фигурными скобками обозначены явления, наблюдавшиеся между сроками (за 1-3 часа до срока); квадратными скобками обозначены град или гололедные отложения с указанием их диаметра в мм.
Облачность - указаны через наклонную черту общая и нижняя облачность в баллах и высота нижней границы облаков в метрах; квадратными скобками обозначены формы облаков: Ci - перистые, Cs - перисто-слоистые, Cc - перисто-кучевые, Ac - высококучевые, As - высокослоистые, Sc - слоисто-кучевые, Ns - слоисто-дождевые, Cu - кучевые, Cb - кучево-дождевые. Подробнее классификацию облаков см. в Атласе облаков (PDF).
T - Температура воздуха - температура, измеренная на высоте 2 м над землей.
Td - Температура точки росы - температура, при понижении до которой содержащийся в воздухе водяной пар достигнет насыщения.
f - Относительная влажность воздуха - влажноcть воздуха, измеренная на высоте 2 м над землей.
Te - Эффективная температура - температура, которую ощущает одетый по сезону человек в тени. Характеристика душности погоды. При расчете учитывается влияние влажности воздуха и скорости ветра на теплоощущения человека.
Tes - Эффективная температура на солнце - температура, которую ощущает человек, с поправкой на солнечный нагрев. Характеристика знойности погоды. Зависит от высоты солнца над горизонтом, облачности и скорости ветра. Ночью, в пасмурную погоду, а также при ветре 12 м/с и более поправка равна нулю.
P - Атмосферное давление - приведенное к уровню моря атмосферное давление.
Po - Атмосферное давление - измеренное на уровне метеостанции атмосферное давление.
Tmin - Минимальная температура - минимум температуры воздуха на высоте 2 м над землей.
Tmax - Максимальная температура - максимум температуры воздуха на высоте 2 м над землей.
R - Количество осадков - Количество выпавших осадков за период времени, мм. При наведении курсора мыши на число - период времени, за который выпало указанное количество осадков.
R24 - Количество осадков - Количество выпавших осадков за 24 часа, мм.
S - Снежный покров - Высота снежного покрова, см. При наведении курсора мыши на число - состояние снежного покрова и степень покрытия местности в баллах.